Location: ?
(35.3436°N, 139.3168°E)
Time: 21:44:09
(UTC+00:00)

Cosmos 1455 - Pass Details

Date: 29 October 2020
Orbit: 500 x 521 km, 82.5° (Epoch: 24 November)

Event Time Altitude Azimuth Distance (km) Brightness Sun altitude
Rises 19:52:05 0° 4° (N) 2,654 5.8 -14.8°
Reaches altitude 10° 19:54:23 10° 14° (NNE) 1,762 5.0 -14.4°
Maximum altitude 19:57:54 32° 79° (E) 904 4.1 -13.7°
Drops below altitude 10° 20:01:23 10° 144° (SE) 1,748 5.5 -13.0°
Sets 20:03:39 0° 154° (SSE) 2,630 6.3 -12.5°
